Weather History for Fort Rucker / Ozark, AL

Change the Weather History Date:

Friday, March 29, 2013

  Actual Average (KDHN) Record (KDHN)
Temperature  
Mean Temperature 56 °F 61 °F  
Max Temperature 75 °F 74 °F 89 °F (2007)
Min Temperature 36 °F 49 °F 30 °F (1955)
Degree Days  
Heating Degree Days 10 5  
Month to date heating degree days 202  
Since 1 July heating degree days 1761  
Cooling Degree Days 0 1  
Month to date cooling degree days 28  
Year to date cooling degree days 38  
Growing Degree Days 6 (Base 50)    
Moisture  
Dew Point 34 °F    
Average Humidity 51    
Maximum Humidity 89    
Minimum Humidity 22    
Precipitation  
Precipitation 0.00 in 0.25 in 2.63 in (1951)
Month to date precipitation 5.38  
Year to date precipitation 14.78  
Sea Level Pressure  
Sea Level Pressure 30.26 in    
Wind  
Wind Speed 3 mph (SW)    
Max Wind Speed 15 mph    
Max Gust Speed 25 mph    
Visibility 10 miles    
Events      
T = Trace of Precipitation, MM = Missing Value Source: NWS Daily Summary

Daily Weather History Graph

Daily Weather History Graph

Search for Another Location

Airport:

Trip Planner

Search our weather history database for the weather conditions in past years. The results will help you decide how hot, cold, wet, or windy it might be!

Date:

Astronomy

Mar. 29, 2013 Rise Set
Actual Time 6:35 AM CDT 7:00 PM CDT
Civil Twilight 6:10 AM CDT 7:24 PM CDT
Nautical Twilight 5:42 AM CDT 7:53 PM CDT
Astronomical Twilight 5:13 AM CDT 8:22 PM CDT
Moon 9:46 PM CDT (3/29) 7:54 AM CDT (3/29)
Length of Visible Light 13h 14m
Length of Day
12h 25m
Waning Gibbous, 93% of the Moon is Illuminated
Mar 29
Waning Gibbous
Apr 2
Last Quarter
Apr 10
New
Apr 18
First Quarter
Apr 25
Full

Hourly Weather History & Observations

Time (CDT) Temp. Dew Point Humidity Pressure Visibility Wind Dir Wind Speed Gust Speed Precip Events Conditions
12:53 AM 41.0 °F 35.1 °F 79% 30.30 in 10.0 mi Calm Calm - N/A   Clear
1:53 AM 39.9 °F 35.1 °F 83% 30.30 in 10.0 mi Calm Calm - N/A   Clear
2:53 AM 39.9 °F 36.0 °F 86% 30.30 in 10.0 mi Calm Calm - N/A   Clear
3:53 AM 37.9 °F 35.1 °F 89% 30.29 in 9.0 mi Calm Calm - N/A   Clear
4:53 AM 37.0 °F 34.0 °F 89% 30.29 in 8.0 mi Calm Calm - N/A   Clear
5:53 AM 36.0 °F 33.1 °F 89% 30.30 in 8.0 mi Calm Calm - N/A   Clear
6:53 AM 36.0 °F 33.1 °F 89% 30.31 in 5.0 mi Calm Calm - N/A   Clear
7:53 AM 42.1 °F 39.0 °F 89% 30.32 in 7.0 mi Calm Calm - N/A   Clear
8:53 AM 54.0 °F 39.0 °F 57% 30.32 in 10.0 mi Calm Calm - N/A   Clear
9:53 AM 64.0 °F 34.0 °F 33% 30.33 in 10.0 mi SSE 5.8 mph - N/A   Clear
10:53 AM 68.0 °F 32.0 °F 26% 30.33 in 10.0 mi SSW 5.8 mph - N/A   Clear
11:53 AM 69.1 °F 30.0 °F 23% 30.30 in 10.0 mi SW 5.8 mph - N/A   Clear
12:53 PM 72.0 °F 32.0 °F 23% 30.26 in 10.0 mi West 9.2 mph - N/A   Clear
1:53 PM 72.0 °F 30.9 °F 22% 30.23 in 10.0 mi Variable 4.6 mph - N/A   Clear
2:53 PM 73.9 °F 33.1 °F 22% 30.20 in 10.0 mi West 5.8 mph - N/A   Clear
3:53 PM 75.0 °F 33.1 °F 22% 30.19 in 10.0 mi SW 12.7 mph - N/A   Clear
4:53 PM 73.9 °F 33.1 °F 22% 30.17 in 10.0 mi SSW 11.5 mph 16.1 mph N/A   Clear
5:53 PM 71.1 °F 30.0 °F 22% 30.18 in 10.0 mi SW 15.0 mph 25.3 mph N/A   Clear
6:53 PM 66.9 °F 30.0 °F 25% 30.19 in 10.0 mi SW 10.4 mph - N/A   Clear
7:53 PM 63.0 °F 30.9 °F 30% 30.20 in 10.0 mi SW 10.4 mph - N/A   Clear
8:53 PM 61.0 °F 33.1 °F 35% 30.22 in 10.0 mi SW 8.1 mph - N/A   Mostly Cloudy
9:53 PM 60.1 °F 36.0 °F 41% 30.23 in 10.0 mi SSW 5.8 mph - N/A   Overcast
10:53 PM 57.0 °F 41.0 °F 55% 30.23 in 10.0 mi SW 3.5 mph - N/A   Mostly Cloudy
11:53 PM 53.1 °F 42.1 °F 66% 30.23 in 10.0 mi Calm Calm - N/A   Clear